{"data":{"norad_id":62424,"intl_designator":"2024-249R","name":"STARLINK-32638","alt_names":[],"object_type":"PAYLOAD","status":"ACTIVE","operator":null,"country":"US","launch_date":"2024-12-23","launch_site_code":"AFETR","launch_vehicle":null,"mission":null,"orbit_class":"UNKNOWN","rcs_meters":null,"size_class":null,"mass_kg":null,"dimensions":null,"purposes":["comms"],"wikipedia_slug":null,"has_3d_model":false,"image_url":null,"decayed_at":null,"tle_current":{"epoch":"2026-09-21T13:12:20.043936Z","epoch_age_seconds":83836,"freshness":"FRESH","line1":"1 62424U 24249R   26264.55023199  .00012428  00000+0  46031-3 0  9996","line2":"2 62424  43.0030 299.5848 0001735 266.6657  93.3996 15.27586143 97635","mean_motion":15.27586143,"eccentricity":0.0001735,"inclination_deg":43.003,"raan_deg":299.5848,"arg_perigee_deg":266.6657,"mean_anomaly_deg":93.3996,"bstar":0.00046031,"rev_number":9763,"period_min":94.266369631503,"perigee_km":481.84028915311,"apogee_km":484.22111434562,"semimajor_km":6861.1677017494,"source":"CELESTRAK","updated_at":"2026-09-22T09:00:49.578406Z"}}}